Regional Weather Roundup
Issued by NWS

Home | Current Version | Previous Version | Text Only | Print | Product List | Glossary On
Versions: 1 2 3 4 5 6 7 8 9 10 11 12 13 14 15 16 17 18 19 20 21 22 23 24 25 26 27 28 29 30 31 32 33 34 35 36 37 38 39 40 41 42 43 44 45 46 47 48 49 50
000
ASUS45 KCYS 222210
RWRWY

WYOMING REGIONAL WEATHER ROUNDUP
NATIONAL WEATHER SERVICE CHEYENNE WY
300 PM MST MON DEC 22 2014

NOTE:  "FAIR" INDICATES FEW OR NO CLOUDS BELOW 12,000 FEET
WITH NO SIGNIFICANT WEATHER AND/OR OBSTRUCTIONS TO VISIBILITY.

WYZ001-222300-
YELLOWSTONE NATIONAL PARK

CITY           SKY/WX    TMP DP  RH WIND       PRES   REMARKS
LK YELLOWSTONE   N/A     21  13  71 VRB3      29.89R
W YELLOWSTONE  NOT AVBL

$$
WYZ002>013-054>058-071-098>099-222300-
NORTHERN WYOMING

CITY           SKY/WX    TMP DP  RH WIND       PRES   REMARKS
JACKSON        BLWGSNOW  25  25 100 MISG      29.92R VSB 1/2
CODY           PTSUNNY   32  21  64 N9        29.84S WCI  24
GREYBULL       FAIR      36  26  67 NW16      29.83R WCI  26
WORLAND        FAIR      33  24  69 NW13      29.83R WCI  24
SHERIDAN       LGT SNOW  34  27  75 NW31G41   29.80R WCI  20
BUFFALO        CLOUDY    33  20  58 NW26G38   29.75R WCI  20
GILLETTE       CLOUDY    34  25  69 NW31G37   29.70R WCI  20
HULETT           N/A    N/A N/A N/A MISG        N/A
NEWCASTLE      FAIR      34  23  64 NW38G52   29.63R WCI  19

$$
WYZ014>020-022>026-101>103-222300-
CENTRAL WYOMING

CITY           SKY/WX    TMP DP  RH WIND       PRES   REMARKS
BIG PINEY      LGT SNOW  24  19  81 NW31G40   29.88R WCI   7
PINEDALE       FAIR      27  18  69 NW21G26   29.85R WCI  13
DUBOIS         NOT AVBL
LANDER         CLOUDY    33  16  49 N10       29.80R WCI  25
RIVERTON       FAIR      28  25  88 NE7       29.84R WCI  21
CASPER         LGT SNOW  30  24  78 N12       29.77R WCI  20
DOUGLAS        PTSUNNY   32  26  78 NW21G26   29.72R WCI  20

$$
WYZ021-027>030-104>119-222300-
SOUTHERN WYOMING

CITY           SKY/WX    TMP DP  RH WIND       PRES   REMARKS
EVANSTON       PTSUNNY   30  25  81 NW15      29.91S WCI  19
KEMMERER       SNOW      28  23  80 W31G38    29.89R VSB 1/2 WCI  12
FORT BRIDGER   FAIR      33  23  65 NW25G33   29.91R WCI  21
ROCK SPRINGS   FAIR      30  16  56 NW22G30   29.82R WCI  17
DIXON          CLOUDY    28  24  82 W3        29.82R
RAWLINS        FAIR      27  19  72 NW15G25   29.77R WCI  15
SARATOGA       CLOUDY    28  23  80 N7        29.77R WCI  21
LARAMIE        LGT SNOW  23  18  81 NW26G37   29.67R WCI   6
CHEYENNE       FAIR      31  19  61 NW20G30   29.66R WCI  19
TORRINGTON     LGT RAIN N/A N/A N/A N26G35    29.66R
PINE BLUFFS    FAIR      34  28  80 NW15G22   29.67R WCI  24

$$


USA.gov is the U.S. government's official web portal to all federal, state and local government web resources and services.